Juneau, AK

7:04 PM AKDT on October 17, 2017 (GMT -0800)
Juneau International

Weather History for PAJN - January, 2014

Change the Weather History Date:

Saturday, January 18, 2014

  Actual Average Record
Temperature  
Mean Temperature 44 °F 28 °F  
Max Temperature 50 °F 33 °F 53 °F (2009)
Min Temperature 38 °F 24 °F -14 °F (1969)
Degree Days  
Heating Degree Days 21 37  
Month to date heating degree days 496 666  
Since 1 July heating degree days 4121 4387  
Moisture  
Dew Point 37 °F    
Average Humidity 71    
Maximum Humidity 92    
Minimum Humidity 50    
Precipitation  
Precipitation 0.50 in 0.18 in 1.84 in (1976)
Month to date precipitation 8.22 3.12  
Year to date precipitation 8.22 3.12  
Snow  
Snow 0.00 in 1.00 in 5.40 in (2005)
Month to date snowfall 4.7 15.3  
Since 1 July snowfall 64.0 44.8  
Snow Depth 0.00 in    
Sea Level Pressure  
Sea Level Pressure 29.78 in    
Wind  
Wind Speed 10 mph (East)    
Max Wind Speed 32 mph    
Max Gust Speed 40 mph    
Visibility 9 miles    
Events Rain    
T = Trace of Precipitation, MM = Missing Value Source: NWS Daily Summary

Daily Weather History Graph

Daily Weather History Graph

Search for Another Location

Airport or City:

Trip Planner

Search our weather history database for the weather conditions in past years. The results will help you decide how hot, cold, wet, or windy it might be!

Date:

Astronomy

Jan. 18, 2014 Rise Set
Actual Time 8:29 AM AKST 3:48 PM AKST
Civil Twilight 7:41 AM AKST 4:37 PM AKST
Nautical Twilight 6:50 AM AKST 5:27 PM AKST
Astronomical Twilight 6:03 AM AKST 6:14 PM AKST
Moon 7:27 PM AKST 8:47 AM AKST
Length of Visible Light 8h 55m
Length of Day
7h 19m
Waning Gibbous, 94% of the Moon is Illuminated
Jan 18
Waning Gibbous
Jan 23
Last Quarter
Jan 30
New
Feb 6
First Quarter
Feb 14
Full

Hourly Weather History & Observations

Time (AKST) Temp. Windchill Dew Point Humidity Pressure Visibility Wind Dir Wind Speed Gust Speed Precip Events Conditions
12:53 AM 44.1 °F 36.8 °F 32.0 °F 63% 29.57 in 10.0 mi East 16.1 mph - N/A   Overcast
1:53 AM 48.0 °F - 30.0 °F 50% 29.54 in 10.0 mi ENE 16.1 mph - N/A   Overcast
3:53 AM 48.0 °F - 34.0 °F 58% 29.54 in 9.0 mi ESE 10.4 mph 24.2 mph 0.00 in Rain Light Rain
4:53 AM 45.0 °F 35.8 °F 37.0 °F 74% 29.53 in 6.0 mi ESE 26.5 mph 35.7 mph 0.05 in Rain Rain
5:53 AM 44.1 °F 34.6 °F 39.0 °F 82% 29.52 in 4.0 mi ESE 26.5 mph 34.5 mph 0.16 in Rain Rain
6:53 AM 42.1 °F 32.6 °F 39.0 °F 89% 29.54 in 6.0 mi East 23.0 mph 32.2 mph 0.07 in Rain Light Rain
7:53 AM 42.1 °F 33.3 °F 39.0 °F 89% 29.57 in 5.0 mi ESE 19.6 mph - 0.10 in Rain Rain
8:29 AM 42.1 °F 34.5 °F 39.0 °F 89% 29.61 in 8.0 mi ESE 15.0 mph - 0.05 in Rain Light Rain
8:53 AM 42.1 °F 36.6 °F 37.9 °F 85% 29.64 in 8.0 mi ENE 9.2 mph - 0.06 in Rain Light Rain
9:53 AM 41.0 °F 35.8 °F 39.0 °F 93% 29.69 in 8.0 mi ENE 8.1 mph - 0.01 in   Overcast
10:48 AM 42.8 °F 41.1 °F 39.2 °F 87% 29.75 in 5.0 mi East 3.5 mph - 0.01 in Rain Rain
10:53 AM 42.1 °F 38.4 °F 39.0 °F 89% 29.75 in 4.0 mi ENE 5.8 mph - 0.02 in Rain Rain
11:15 AM 42.1 °F 37.1 °F 39.0 °F 89% 29.76 in 10.0 mi ENE 8.1 mph - 0.01 in Rain Light Rain
11:53 AM 42.1 °F 40.2 °F 39.9 °F 92% 29.80 in 10.0 mi East 3.5 mph - 0.01 in   Overcast
12:53 PM 42.1 °F - 39.9 °F 92% 29.81 in 10.0 mi Calm Calm - N/A   Mostly Cloudy
1:53 PM 42.1 °F 40.2 °F 39.0 °F 89% 29.84 in 10.0 mi Variable 3.5 mph - N/A   Mostly Cloudy
2:53 PM 42.1 °F 40.2 °F 36.0 °F 79% 29.88 in 10.0 mi SW 3.5 mph - 0.00 in Rain Light Rain
3:53 PM 41.0 °F 37.1 °F 36.0 °F 82% 29.90 in 10.0 mi NE 5.8 mph - 0.00 in   Mostly Cloudy
4:53 PM 39.9 °F - 37.0 °F 89% 29.92 in 10.0 mi Calm Calm - N/A   Mostly Cloudy
5:53 PM 39.9 °F 36.7 °F 36.0 °F 86% 29.93 in 10.0 mi East 4.6 mph - N/A   Overcast
6:53 PM 39.9 °F 35.1 °F 36.0 °F 86% 29.94 in 10.0 mi ENE 6.9 mph - N/A   Overcast
7:53 PM 39.9 °F 36.7 °F 36.0 °F 86% 29.97 in 10.0 mi ENE 4.6 mph - N/A   Overcast
8:53 PM 39.9 °F 36.7 °F 36.0 °F 86% 30.01 in 9.0 mi ENE 4.6 mph - 0.00 in Rain Light Rain
9:53 PM 39.9 °F 35.1 °F 36.0 °F 86% 30.03 in 10.0 mi East 6.9 mph - 0.00 in Rain Light Rain
10:53 PM 39.0 °F 32.8 °F 37.0 °F 93% 30.06 in 10.0 mi ENE 9.2 mph - 0.02 in Rain Light Rain
11:53 PM 39.0 °F 34.0 °F 36.0 °F 89% 30.08 in 10.0 mi ENE 6.9 mph - 0.00 in Rain Light Rain